"Time","Temp","Dewpoint","Humidity","Pressure","Direction","Speed","Gust","Precip","PrecipRate"
"00:04:56","74.3","68.4","81.9","30.09","92","0.1","2.3","0.00","0.00"
"00:09:59","74.1","68.3","82.2","30.09","92","0","0","0.00","0.00"
"00:14:56","73.8","68.4","83.3","30.09","92","0","0","0.00","0.00"
"00:19:57","73.6","68.5","84","30.09","92","0","0","0.00","0.00"
"00:24:59","73.4","68.3","84","30.09","92","0","0","0.00","0.00"
"00:29:57","73.1","68.2","84.4","30.10","92","0","0","0.00","0.00"
"00:34:59","72.9","68","84.8","30.10","92","0","2","0.00","0.00"
"00:39:55","72.5","68.1","85.9","30.10","92","0.1","2.3","0.00","0.00"
"00:44:57","72.2","67.8","86","30.10","92","0","0","0.00","0.00"
"00:49:58","71.9","67.8","86.9","30.10","92","0","0","0.00","0.00"
"00:54:58","71.7","68","88","30.10","92","0.3","2.3","0.00","0.00"
"00:59:59","71.7","68","88","30.10","92","1.1","2.3","0.00","0.00"
"01:04:57","71.7","68","88","30.10","92","0.7","1.2","0.00","0.00"
"01:09:59","71.6","67.9","88","30.10","92","0.2","1.2","0.00","0.00"
"01:14:58","71.5","67.8","87.8","30.10","92","0","0","0.00","0.00"
"01:19:59","71.3","67.6","88","30.10","92","0","0","0.00","0.00"
"01:24:56","71.2","67.5","88","30.10","92","0","0","0.00","0.00"
"01:29:58","71","67.5","88.6","30.10","92","0","0","0.00","0.00"
"01:34:58","70.9","67.5","89","30.10","92","0","0","0.00","0.00"
"01:39:58","70.7","67.3","89","30.10","92","0","1","0.00","0.00"
"01:44:59","70.6","67.2","89","30.10","92","0.2","1.2","0.00","0.00"
"01:49:59","70.6","67.2","89","30.10","92","0","0","0.00","0.00"
"01:54:57","70.5","67.1","89","30.10","92","0","0","0.00","0.00"
"01:59:57","70.4","67.1","89.2","30.10","92","0","0","0.00","0.00"
"02:04:59","70.3","67.2","89.8","30.10","92","0","0","0.00","0.00"
"02:09:58","70.2","67.1","89.8","30.10","92","0","0","0.00","0.00"
"02:14:57","70.1","67","90","30.10","92","0","0","0.00","0.00"
"02:19:58","69.9","67","90.5","30.09","92","0","0","0.00","0.00"
"02:24:59","69.9","66.8","90.2","30.09","92","0","0","0.00","0.00"
"02:29:56","69.8","66.7","90.2","30.09","92","0","0","0.00","0.00"
"02:34:56","69.6","66.9","91","30.09","92","0","0","0.00","0.00"
"02:39:55","69.5","66.8","91","30.09","92","0","0","0.00","0.00"
"02:44:59","69.5","66.8","91","30.09","91","0.7","2.3","0.00","0.00"
"02:49:58","69.5","66.8","91","30.09","91","0.3","2.3","0.00","0.00"
"02:54:57","69.4","66.7","91","30.09","92","0","0","0.00","0.00"
"02:59:56","69.3","66.6","91","30.09","92","0","0","0.00","0.00"
"03:04:58","69.2","66.7","91.7","30.09","91","0","1.2","0.00","0.00"
"03:09:56","69.1","66.7","92","30.09","91","0.2","1.2","0.00","0.00"
"03:14:59","69","66.6","92","30.09","91","0.3","1.2","0.00","0.00"
"03:19:59","69","66.6","92","30.09","91","0.6","2.3","0.00","0.00"
"03:24:56","69","66.6","92","30.09","91","0.1","1.2","0.00","0.00"
"03:29:58","69","66.6","92","30.09","92","0","0","0.00","0.00"
"03:34:58","68.9","66.5","92","30.09","92","0","0","0.00","0.00"
"03:39:58","68.8","66.4","92","30.09","92","0","0","0.00","0.00"
"03:44:56","68.8","66.5","92.3","30.09","92","0","0","0.00","0.00"
"03:49:57","68.7","66.6","93","30.09","92","0","0","0.00","0.00"
"03:54:56","68.6","66.5","93","30.09","92","0","0","0.00","0.00"
"03:59:59","68.6","66.5","93","30.10","92","0","0","0.00","0.00"
"04:04:58","68.6","66.5","93","30.10","92","0","0","0.00","0.00"
"04:09:56","68.5","66.4","93","30.10","92","0","0","0.00","0.00"
"04:14:56","68.4","66.3","93","30.10","92","0","0","0.00","0.00"
"04:19:59","68.4","66.3","93","30.10","92","0","0","0.00","0.00"
"04:24:58","68.3","66.2","93","30.10","92","0","0","0.00","0.00"
"04:29:57","68.2","66.1","93","30.10","92","0","0","0.00","0.00"
"04:34:56","68.1","66","93","30.10","92","0","0","0.00","0.00"
"04:39:59","68","66","93.4","30.10","92","0","0","0.00","0.00"
"04:44:58","68","66.2","94","30.10","92","0","0","0.00","0.00"
"04:49:57","67.9","66.1","94","30.10","92","0","0","0.00","0.00"
"04:54:56","67.9","66.1","94","30.10","92","0","0","0.00","0.00"
"04:59:56","67.7","65.9","94","30.10","92","0","0","0.00","0.00"
"05:04:58","67.7","65.9","94","30.10","92","0","0","0.00","0.00"
"05:09:57","67.7","65.9","94","30.10","92","0","0","0.00","0.00"
"05:14:59","67.6","65.8","94","30.11","92","0","0","0.00","0.00"
"05:19:58","67.6","65.8","94","30.11","92","0","0","0.00","0.00"
"05:24:58","67.5","65.7","94","30.11","92","0","0","0.00","0.00"
"05:29:57","67.4","65.7","94.2","30.11","92","0","0","0.00","0.00"
"05:34:56","67.4","65.8","94.6","30.11","92","0","0","0.00","0.00"
"05:39:56","67.4","65.6","94.1","30.11","92","0","0","0.00","0.00"
"05:44:59","67.3","65.5","94","30.12","92","0","0","0.00","0.00"
"05:49:59","67.2","65.5","94.2","30.12","92","0","0","0.00","0.00"
"05:54:59","67.2","65.7","95","30.12","92","0","0","0.00","0.00"
"05:59:59","67.1","65.6","95","30.12","92","0","0","0.00","0.00"
"06:04:58","67.1","65.6","95","30.12","92","0","0","0.00","0.00"
"06:09:57","67.1","65.6","95","30.12","92","0","0","0.00","0.00"
"06:14:56","67.1","65.6","95","30.12","92","0","0","0.00","0.00"
"06:19:56","67.1","65.6","95","30.12","92","0","0","0.00","0.00"
"06:24:56","67.1","65.6","95","30.12","92","0","0","0.00","0.00"
"06:29:56","67.1","65.6","95","30.13","92","0","0","0.00","0.00"
"06:34:57","67.1","65.6","95","30.13","92","0","0","0.00","0.00"
"06:39:57","67","65.5","95","30.13","92","0","0","0.00","0.00"
"06:44:57","67","65.6","95.1","30.13","92","0","0","0.00","0.00"
"06:49:57","67.2","66","96","30.13","92","0","0","0.00","0.00"
"06:54:56","67.4","66.2","96","30.13","97","0","0","0.00","0.00"
"06:59:56","67.5","66.3","96","30.13","97","0","0","0.00","0.00"
"07:04:58","67.7","66.5","96","30.13","97","0","0","0.00","0.00"
"07:09:56","67.8","66.5","95.7","30.13","97","0","0","0.00","0.00"
"07:14:56","67.9","66.4","95","30.14","97","0","0","0.00","0.00"
"07:19:56","68.1","66.6","95","30.14","97","0","0","0.00","0.00"
"07:24:59","68.2","66.7","95","30.14","97","0","0","0.00","0.00"
"07:29:59","68.3","66.8","95","30.14","97","0","0","0.00","0.00"
"07:34:59","68.4","66.9","95","30.14","97","0","0","0.00","0.00"
"07:39:57","68.4","66.9","95","30.14","97","0","0","0.00","0.00"
"07:44:57","68.5","67","95","30.14","97","0","0","0.00","0.00"
"07:49:56","68.7","67.2","95","30.14","97","0","0","0.00","0.00"
"07:54:56","69","67.5","95","30.14","98","0","2","0.00","0.00"
"07:59:56","69.4","67.9","95","30.15","98","0.7","2.3","0.00","0.00"
"08:04:58","69.9","68.2","94.5","30.15","43","0.9","3.5","0.00","0.00"
"08:09:56","70.2","68.4","94","30.15","355","0.5","2.3","0.00","0.00"
"08:14:59","70.6","68.6","93.3","30.15","355","0.5","2.3","0.00","0.00"
"08:19:58","71","68.9","93","30.15","355","0.2","2.3","0.00","0.00"
"08:24:57","71.5","69.5","93.4","30.15","355","0","0","0.00","0.00"
"08:29:56","72.1","70","93","30.15","355","0","0","0.00","0.00"
"08:34:59","72.7","70.2","91.8","30.15","355","0.2","2.3","0.00","0.00"
"08:39:59","73.4","70.6","90.9","30.15","355","0.2","2.3","0.00","0.00"
"08:44:59","74.1","70.5","88.6","30.15","355","0","1.2","0.00","0.00"
"08:49:58","74.6","70.7","87.5","30.15","338","0.1","1.2","0.00","0.00"
"08:54:58","75.1","70.6","85.9","30.15","219","0.6","3","0.00","0.00"
"08:59:57","75.8","70.9","84.8","30.15","196","0.8","2.3","0.00","0.00"
"09:04:59","76.4","71.2","84","30.15","196","0.1","1.2","0.00","0.00"
"09:09:57","76.9","71.6","83.6","30.15","196","0.2","1.2","0.00","0.00"
"09:14:57","77.6","71.7","82","30.15","192","0.4","2","0.00","0.00"
"09:19:57","78.1","71.6","80.5","30.15","138","1.7","4","0.00","0.00"
"09:24:56","78.1","71.7","80.6","30.15","136","0","0","0.00","0.00"
"09:29:59","78.4","72.1","81","30.15","136","0","0","0.00","0.00"
"09:34:59","78.7","72.1","80.2","30.15","136","0","0","0.00","0.00"
"09:39:56","78.9","72.1","79.7","30.15","136","0","0","0.00","0.00"
"09:44:58","79.2","71.9","78.3","30.15","136","0","0","0.00","0.00"
"09:49:57","79.5","71.7","77.2","30.14","136","0","0","0.00","0.00"
"09:54:59","79.8","72.1","77.5","30.14","136","0","1","0.00","0.00"
"09:59:58","80.4","72.4","76.8","30.14","126","0","1.2","0.00","0.00"
"10:04:56","80.9","72.8","76.5","30.14","134","0.5","5","0.00","0.00"
"10:09:58","81.3","72.5","74.9","30.14","134","1.2","4.6","0.00","0.00"
"10:14:59","81.7","72.9","74.6","30.15","188","0.5","2.3","0.00","0.00"
"10:19:58","81.9","72.5","73.2","30.15","310","1.8","3.5","0.00","0.00"
"10:24:55","82","72.9","73.9","30.15","317","0.4","3.5","0.00","0.00"
"10:29:58","82.3","72.6","72.4","30.15","126","0","2","0.00","0.00"
"10:34:58","82.5","72.7","72.5","30.15","205","0.6","3.5","0.00","0.00"
"10:39:59","82.8","72.9","72.2","30.15","154","1","3.5","0.00","0.00"
"10:44:57","83.1","72.6","71","30.15","208","1.6","4","0.00","0.00"
"10:49:58","83","72.5","70.8","30.15","209","1.6","5","0.00","0.00"
"10:54:56","83.1","72.9","71.5","30.15","226","0.6","3.5","0.00","0.00"
"10:59:57","83.4","72.5","69.7","30.15","319","1.1","5","0.00","0.00"
"11:04:59","83.5","72.3","69","30.15","172","0","3","0.00","0.00"
"11:09:57","83.8","72.4","68.8","30.15","350","0.2","2.3","0.00","0.00"
"11:14:58","84.2","72.4","67.8","30.15","305","0.8","5","0.00","0.00"
"11:19:59","84.3","72.4","67.7","30.15","317","2.1","5","0.00","0.00"
"11:24:57","84.3","72.7","68.3","30.15","257","1.9","5","0.00","0.00"
"11:29:59","84.6","73","68.2","30.15","219","1","3.5","0.00","0.00"
"11:34:57","85.2","73.5","68.3","30.14","318","1.1","3.5","0.00","0.00"
"11:39:58","85.8","73.5","66.8","30.14","327","1","4","0.00","0.00"
"11:44:57","86","73.8","67.1","30.14","4","1.5","5","0.00","0.00"
"11:49:59","86.2","73.5","65.9","30.14","115","2","4","0.00","0.00"
"11:54:57","86.3","73.2","65.1","30.14","171","1.6","3.5","0.00","0.00"
"11:59:59","86.5","73.9","66.2","30.14","27","1","3.5","0.00","0.00"
"12:04:56","86.6","73","64","30.13","252","1.8","4","0.00","0.00"
"12:09:58","86.7","73.5","65","30.13","175","1.1","4","0.00","0.00"
"12:14:57","87.3","73.9","64.8","30.14","123","0.8","4","0.00","0.00"
"12:19:59","87.7","73.5","62.9","30.14","57","0","0","0.00","0.00"
"12:24:57","88.1","74.4","63.9","30.14","71","0","1.2","0.00","0.00"
"12:29:56","88.6","74.3","62.7","30.14","13","0","0","0.00","0.00"
"12:34:59","88.7","73.9","61.7","30.13","110","0.4","3","0.00","0.00"
"12:39:56","88.9","74.5","62.6","30.13","176","1.2","4","0.00","0.00"
"12:44:58","89.5","74.6","61.6","30.13","192","3","6","0.00","0.00"
"12:49:57","89.6","74","60.2","30.13","254","2.4","4","0.00","0.00"
"12:54:56","89.2","73.1","59.2","30.13","163","2.4","6","0.00","0.00"
"12:59:56","88.6","73.2","60.8","30.13","130","1.2","4","0.00","0.00"
"13:04:58","88.4","74.3","63.2","30.12","131","0.6","2.3","0.00","0.00"
"13:09:56","89","74.1","61.6","30.12","185","1.6","5","0.00","0.00"
"13:14:59","89.6","73.3","58.7","30.12","157","2.1","9","0.00","0.00"
"13:19:59","89.3","73.2","59.2","30.12","125","1.7","5","0.00","0.00"
"13:24:58","88.8","72.8","59.4","30.12","204","1.2","4","0.00","0.00"
"13:29:59","88.7","73.6","61.3","30.12","302","1.3","4","0.00","0.00"
"13:34:57","89","73.3","60.1","30.11","119","1.7","5","0.00","0.00"
"13:39:57","89.2","73.8","60.6","30.11","125","1.8","4.6","0.00","0.00"
"13:44:59","89.7","73.9","59.8","30.11","140","1.8","5","0.00","0.00"
"13:49:58","89.7","72.9","57.8","30.10","124","1.3","4","0.00","0.00"
"13:54:57","89.3","73.2","59.3","30.10","122","0.4","3","0.00","0.00"
"13:59:57","89.3","74","60.9","30.10","113","0.8","3.5","0.00","0.00"
"14:04:59","89.9","74.4","60.5","30.10","32","0.7","3","0.00","0.00"
"14:09:57","89.9","73.1","57.9","30.10","104","0.8","3.5","0.00","0.00"
"14:14:59","89.5","72.8","58","30.10","15","1","4","0.00","0.00"
"14:19:58","89.6","73.8","59.7","30.09","337","1.7","4","0.00","0.00"
"14:24:57","90.5","73.5","57.6","30.09","181","2.9","7","0.00","0.00"
"14:29:58","91.6","73.4","55.5","30.09","175","2.8","7","0.00","0.00"
"14:34:57","91.7","73","54.6","30.09","146","1.3","4.6","0.00","0.00"
"14:39:57","91.2","72.8","54.9","30.09","194","3","6","0.00","0.00"
"14:44:56","91","73.2","56.2","30.09","194","3","7","0.00","0.00"
"14:49:56","90.8","73.2","56.6","30.08","169","1.7","3.5","0.00","0.00"
"14:54:56","90.6","73","56.3","30.08","170","2.4","6","0.00","0.00"
"14:59:59","90.4","72.8","56.5","30.08","161","2.7","6","0.00","0.00"
"15:04:57","90.1","72.1","55.7","30.08","132","1.8","6","0.00","0.00"
"15:09:59","90.3","72.5","56","30.08","187","2.9","7","0.00","0.00"
"15:14:58","91.2","72.7","54.8","30.08","214","2.1","9","0.00","0.00"
"15:19:56","91.5","72.9","54.7","30.07","196","4.8","13","0.00","0.00"
"15:24:57","91.6","72.5","53.8","30.07","209","4.5","9.2","0.00","0.00"
"15:29:58","91.1","72","53.7","30.07","145","2.2","5","0.00","0.00"
"15:34:58","90.6","72","54.5","30.07","158","3","6","0.00","0.00"
"15:39:58","90.9","71.8","53.7","30.07","198","3","6","0.00","0.00"
"15:44:59","91","71.9","53.8","30.07","194","2.1","6","0.00","0.00"
"15:49:59","91.4","73.5","56.1","30.06","175","2.7","6","0.00","0.00"
"15:54:58","92.3","73.5","54.4","30.06","166","3.6","9.2","0.00","0.00"
"15:59:57","92.9","73.9","54.2","30.06","206","3.3","6","0.00","0.00"
"16:04:56","93.5","72.8","51.3","30.06","195","4.4","10.4","0.00","0.00"
"16:09:58","93.9","73.1","51.2","30.06","147","2.8","6.9","0.00","0.00"
"16:14:57","94.1","72.8","50.4","30.06","202","2.9","6","0.00","0.00"
"16:19:59","93.5","72.1","50.1","30.05","178","4.8","12","0.00","0.00"
"16:24:59","92.6","72.3","51.8","30.05","196","3.3","7","0.00","0.00"
"16:29:58","92.3","72.4","52.5","30.05","166","3.4","7","0.00","0.00"
"16:34:59","92.3","72.8","53.1","30.05","162","2.5","6","0.00","0.00"
"16:39:58","92.7","72.7","52.4","30.05","188","3","6","0.00","0.00"
"16:44:59","92.3","72.5","52.5","30.05","199","4.2","9.2","0.00","0.00"
"16:49:56","91.5","72.5","54.1","30.05","183","3.8","8","0.00","0.00"
"16:54:56","90.6","72.3","55.1","30.05","191","4.7","13","0.00","0.00"
"16:59:56","90","71.6","54.8","30.05","179","5.5","12.7","0.00","0.00"
"17:04:59","89.6","72.1","56.5","30.05","158","3.3","10.4","0.00","0.00"
"17:09:57","89.1","72.2","57.5","30.05","171","3","10.4","0.00","0.00"
"17:14:56","88.9","73.2","60","30.05","136","2.1","5","0.00","0.00"
"17:19:58","89","73.4","60.2","30.05","134","2.7","6","0.00","0.00"
"17:24:59","89.7","72.8","57.7","30.05","183","4.5","10.4","0.00","0.00"
"17:29:59","90.6","71.2","53.2","30.05","192","3.9","12","0.00","0.00"
"17:34:59","90.9","71.2","52.7","30.05","203","5","11","0.00","0.00"
"17:39:59","90.6","71.2","53.1","30.05","209","4.6","11.5","0.00","0.00"
"17:44:56","90.2","71.1","53.5","30.05","211","2.8","5","0.00","0.00"
"17:49:57","90.1","71.3","54","30.05","221","3.9","9.2","0.00","0.00"
"17:54:56","90.4","71.3","53.6","30.05","179","4.3","12","0.00","0.00"
"17:59:57","90.7","70.7","52","30.05","207","6.1","13","0.00","0.00"
"18:04:59","90.6","70.9","52.5","30.05","211","3.7","9.2","0.00","0.00"
"18:09:57","90.6","70.7","52.2","30.05","208","3.2","10.4","0.00","0.00"
"18:14:56","90.3","70.4","52.3","30.05","198","4.3","11","0.00","0.00"
"18:19:57","89.5","70.2","53","30.05","193","4.4","11.5","0.00","0.00"
"18:24:59","88.9","70.2","54.1","30.05","188","3.5","10.4","0.00","0.00"
"18:29:56","88.8","70.9","55.8","30.05","200","2.3","4","0.00","0.00"
"18:34:58","88.8","71","55.9","30.05","193","2.3","6","0.00","0.00"
"18:39:59","88.8","71","55.8","30.05","182","2.6","5.8","0.00","0.00"
"18:44:59","88.8","71.6","57","30.05","179","3","9","0.00","0.00"
"18:49:58","88.6","71.7","57.6","30.05","184","4.1","10.4","0.00","0.00"
"18:54:59","88.3","71.7","58.1","30.05","182","3.6","10.4","0.00","0.00"
"18:59:58","87.9","71.8","59","30.06","163","2.8","6","0.00","0.00"
"19:04:56","87.7","71.9","59.6","30.06","170","2.3","5.8","0.00","0.00"
"19:09:59","87.5","71.9","60","30.06","190","2.5","6","0.00","0.00"
"19:14:58","87.4","72","60.4","30.06","197","2.3","5","0.00","0.00"
"19:19:57","87.3","72.2","61","30.06","165","2.4","5","0.00","0.00"
"19:24:57","87.1","72.3","61.7","30.06","205","2","5","0.00","0.00"
"19:29:57","86.8","72.1","61.7","30.06","183","2.4","5","0.00","0.00"
"19:34:56","86.7","72.1","62","30.06","160","1.6","4","0.00","0.00"
"19:39:59","86.6","72.1","62.3","30.06","159","1.9","6","0.00","0.00"
"19:44:59","86.4","72.3","62.8","30.07","170","2","5","0.00","0.00"
"19:49:56","86.4","72.3","63","30.07","138","1.7","6","0.00","0.00"
"19:54:57","86.2","72.1","63","30.07","161","1.7","4","0.00","0.00"
"19:59:56","86.1","72","63","30.07","147","1.8","4","0.00","0.00"
"20:04:56","86","71.9","63","30.07","171","2.5","5","0.00","0.00"
"20:09:58","85.9","72","63.3","30.07","173","1.6","3.5","0.00","0.00"
"20:14:56","85.8","72.2","64","30.08","134","1.4","4","0.00","0.00"
"20:19:57","85.7","72.1","64.1","30.08","127","1.9","4","0.00","0.00"
"20:24:59","85.6","72.4","64.8","30.08","126","0.9","3","0.00","0.00"
"20:29:56","85.5","72.4","65","30.08","148","2.8","6","0.00","0.00"
"20:34:58","85.4","72.4","65.1","30.08","148","1.9","6","0.00","0.00"
"20:39:59","85.3","72.5","65.7","30.08","140","1.6","4","0.00","0.00"
"20:44:57","85.2","72.6","66","30.09","128","0.7","2.3","0.00","0.00"
"20:49:59","85.1","72.7","66.6","30.09","133","1.6","5","0.00","0.00"
"20:54:58","85","72.8","67.1","30.09","94","1.1","3.5","0.00","0.00"
"20:59:56","84.7","73.5","69","30.10","75","0.6","2.3","0.00","0.00"
"21:04:59","84","73.4","70.6","30.10","76","0.8","3","0.00","0.00"
"21:09:57","82.8","73.1","72.5","30.10","89","0.9","3.5","0.00","0.00"
"21:14:58","81.9","72.9","74.3","30.10","70","0.6","2.3","0.00","0.00"
"21:19:59","81.3","72.8","75.5","30.10","72","0.8","2.3","0.00","0.00"
"21:24:56","80.8","72.5","76","30.10","110","1.4","5","0.00","0.00"
"21:29:57","80.6","72.5","76.5","30.10","130","1.1","4","0.00","0.00"
"21:34:58","80.3","72.4","77","30.10","130","1.1","3.5","0.00","0.00"
"21:39:59","80.1","72.2","77","30.10","130","0.9","3.5","0.00","0.00"
"21:44:56","79.8","72.2","77.6","30.10","130","0.3","2.3","0.00","0.00"
"21:49:58","79.6","72.1","78","30.10","131","0","1.2","0.00","0.00"
"21:54:56","79.4","71.9","78.1","30.10","131","0.1","1.2","0.00","0.00"
"21:59:58","79.2","72.1","79","30.10","131","0","0","0.00","0.00"
"22:04:58","79","71.9","79","30.10","131","0","0","0.00","0.00"
"22:09:59","78.8","71.9","79.4","30.10","130","0.2","1.2","0.00","0.00"
"22:14:59","78.6","71.9","80","30.11","130","0.1","1.2","0.00","0.00"
"22:19:58","78.5","71.8","80","30.11","130","0.4","2.3","0.00","0.00"
"22:24:59","78.4","71.8","80.2","30.11","131","0","1.2","0.00","0.00"
"22:29:58","78.3","72","81","30.11","130","0.1","1.2","0.00","0.00"
"22:34:56","78.2","71.9","81","30.11","131","0","1","0.00","0.00"
"22:39:58","78.1","72","81.4","30.11","130","0.1","2","0.00","0.00"
"22:44:56","78.1","72.2","81.9","30.11","130","0.2","2.3","0.00","0.00"
"22:49:58","78.1","72.2","82","30.11","130","0","0","0.00","0.00"
"22:54:57","78","72.1","82","30.11","131","0","0","0.00","0.00"
"22:59:58","78","72.1","82","30.11","130","0","0","0.00","0.00"
"23:04:58","78","72.4","83","30.11","131","0","0","0.00","0.00"
"23:09:57","78","72.4","83","30.11","131","0","1.2","0.00","0.00"
"23:14:59","78","72.4","83","30.11","131","0","0","0.00","0.00"
"23:19:57","78.1","72.5","83","30.11","131","0","0","0.00","0.00"
"23:24:59","78.2","72.5","82.5","30.11","131","0","0","0.00","0.00"
"23:29:57","78.2","72.6","83","30.11","131","0","0","0.00","0.00"
"23:34:56","78.2","72.6","83","30.11","131","0","0","0.00","0.00"
"23:39:59","78.1","72.5","83","30.11","131","0","0","0.00","0.00"
"23:44:57","78","72.4","83","30.11","131","0.5","2.3","0.00","0.00"
"23:49:59","78.1","72.5","83","30.11","131","0.4","2.3","0.00","0.00"
"23:54:58","78.1","72.5","83","30.11","136","0","0","0.00","0.00"
"23:59:57","78.3","72.7","83","30.11","138","0","1","0.00","0.00"
